Tracking 31027 objects as of 19-Jul-2025
HD Live streaming from Space Station
objects crossing your sky now

USA 118

Track USA 118 now!
USA 118 is classified as:


NORAD ID: 23855
Int'l Code: 1996-026A
Perigee: 34,383.3 km
Apogee: 37,205.2 km
Inclination: 8.1 °
Period: 1,436.1 minutes
Semi major axis: 42165 km
RCS: Unknown
Launch date: April 24, 1996
Source: United States (US)
Launch site: AIR FORCE EASTERN TEST RANGE (AFETR)

In the $1 billion range; ELINT; signals intelligence.
Your satellite tracking list
STARLINK-4010
Track 1 satellite(s)




NASA's NSSDC Master Catalog

Two Line Element Set (TLE):
1 23855U 96026A   25093.29630790 0.00000000  00000-0  00000-0 0    04
2 23855   8.1336 353.2659 0334621 300.1447  56.3921  1.00270000    03
Source of the keplerian elements: McCants